Location: Spor
(46.2167°N, 11.0500°E)
Time: 22:13:01
(UTC+00:00)

ADEOS II - Pass Details

Date: 07 June 2020
Orbit: 800 x 800 km, 98.5° (Epoch: 11 July)

Event Time Altitude Azimuth Distance (km) Brightness Sun altitude
Rises 02:42:46 0° 6° (N) 3,321 6.1 -6.5°
Reaches altitude 10° 02:45:18 10° 357° (N) 2,386 5.2 -6.2°
Maximum altitude 02:49:56 33° 295° (WNW) 1,334 3.1 -5.6°
Drops below altitude 10° 02:54:34 10° 233° (SW) 2,372 3.9 -5.0°
Enters shadow 02:55:35 - 229° (SW) 2,740 4.1 -4.8°
